owner,sensor,date,latitude,longitude,vertical_datum,direction_of_sea_water_velocity,sea_water_speed,upward_sea_water_velocity,qcFlag 
TABS,ioos:station:wmo:42045:1,2003-02-01T00:00:00Z,26.2168,-96.4998,2.0,279.3318096,8.634257351,-99999.0,'11133222,11111222,99999999' 
TABS,ioos:station:wmo:42045:1,2003-02-01T00:30:00Z,26.2168,-96.4998,2.0,274.8662977,8.841866319,-99999.0,'11133222,11111222,99999999' 
TABS,ioos:station:wmo:42045:1,2003-02-01T01:00:00Z,26.2168,-96.4998,2.0,275.5298961,9.44394515,-99999.0,'11133222,11111222,99999999' 
TABS,ioos:station:wmo:42045:1,2003-02-01T01:30:00Z,26.2168,-96.4998,2.0,271.3961808,9.852923424,-99999.0,'11133222,11111222,99999999' 
TABS,ioos:station:wmo:42045:1,2003-02-01T02:00:00Z,26.2168,-96.4998,2.0,282.8737835,9.919324574,-99999.0,'11133222,11111222,99999999' 
TABS,ioos:station:wmo:42045:1,2003-02-01T02:30:00Z,26.2168,-96.4998,2.0,270.2257714,10.17007866,-99999.0,'11111222,11111222,99999999' 
TABS,ioos:station:wmo:42045:1,2003-02-01T03:00:00Z,26.2168,-96.4998,2.0,278.2481259,11.71112719,-99999.0,'11111222,11111222,99999999' 
TABS,ioos:station:wmo:42045:1,2003-02-01T03:30:00Z,26.2168,-96.4998,2.0,268.2938728,10.41461473,-99999.0,'11111222,11111222,99999999' 
TABS,ioos:station:wmo:42045:1,2003-02-01T04:00:00Z,26.2168,-96.4998,2.0,275.1649058,8.665177436,-99999.0,'11133222,11111222,99999999' 
TABS,ioos:station:wmo:42045:1,2003-02-01T04:30:00Z,26.2168,-96.4998,2.0,266.7555236,9.895857719,-99999.0,'11133222,11111222,99999999' 
TABS,ioos:station:wmo:42045:1,2003-02-01T05:00:00Z,26.2168,-96.4998,2.0,267.418542,10.88103855,-99999.0,'11111222,11111222,99999999' 
TABS,ioos:station:wmo:42045:1,2003-02-01T05:30:00Z,26.2168,-96.4998,2.0,269.0006793,9.751481939,-99999.0,'11133222,11111222,99999999' 
TABS,ioos:station:wmo:42045:1,2003-02-01T06:00:00Z,26.2168,-96.4998,2.0,271.8003651,8.914398465,-99999.0,'11133222,11111222,99999999' 
TABS,ioos:station:wmo:42045:1,2003-02-01T07:00:00Z,26.2168,-96.4998,2.0,272.0202493,8.79546474,-99999.0,'11133222,11111222,99999999' 
TABS,ioos:station:wmo:42045:1,2003-02-01T07:30:00Z,26.2168,-96.4998,2.0,258.0702848,8.708065227,-99999.0,'11133222,11111222,99999999' 
TABS,ioos:station:wmo:42045:1,2003-02-01T08:00:00Z,26.2168,-96.4998,2.0,263.0489064,6.114940719,-99999.0,'11133222,11111222,99999999' 
TABS,ioos:station:wmo:42045:1,2003-02-01T08:30:00Z,26.2168,-96.4998,2.0,254.5260702,6.671828835,-99999.0,'11133222,11111222,99999999' 
TABS,ioos:station:wmo:42045:1,2003-02-01T09:00:00Z,26.2168,-96.4998,2.0,269.2010852,5.740557464,-99999.0,'11133222,11111222,99999999' 
TABS,ioos:station:wmo:42045:1,2003-02-01T10:00:00Z,26.2168,-96.4998,2.0,253.4335419,6.593693957,-99999.0,'11133222,11111222,99999999' 
TABS,ioos:station:wmo:42045:1,2003-02-01T10:30:00Z,26.2168,-96.4998,2.0,242.8418976,6.484944102,-99999.0,'11133222,11111222,99999999' 
TABS,ioos:station:wmo:42045:1,2003-02-01T11:00:00Z,26.2168,-96.4998,2.0,240.5459752,6.833161786,-99999.0,'11133222,11111222,99999999' 
TABS,ioos:station:wmo:42045:1,2003-02-01T11:30:00Z,26.2168,-96.4998,2.0,226.3101405,4.328625648,-99999.0,'11133222,11111222,99999999' 
TABS,ioos:station:wmo:42045:1,2003-02-01T12:00:00Z,26.2168,-96.4998,2.0,234.3996162,6.407573644,-99999.0,'11133222,11111222,99999999' 
TABS,ioos:station:wmo:42045:1,2003-02-01T12:30:00Z,26.2168,-96.4998,2.0,232.0194096,7.637434124,-99999.0,'11133222,11111222,99999999' 
TABS,ioos:station:wmo:42045:1,2003-02-01T13:00:00Z,26.2168,-96.4998,2.0,220.0328201,6.125332644,-99999.0,'11133222,11111222,99999999' 
TABS,ioos:station:wmo:42045:1,2003-02-01T13:30:00Z,26.2168,-96.4998,2.0,221.0292335,5.514526272,-99999.0,'11133222,11111222,99999999' 
TABS,ioos:station:wmo:42045:1,2003-02-01T14:00:00Z,26.2168,-96.4998,2.0,221.0545073,5.755345342,-99999.0,'11133222,11111222,99999999' 
TABS,ioos:station:wmo:42045:1,2003-02-01T14:30:00Z,26.2168,-96.4998,2.0,229.4867834,6.326784333,-99999.0,'11133222,11111222,99999999' 
TABS,ioos:station:wmo:42045:1,2003-02-01T15:00:00Z,26.2168,-96.4998,2.0,232.0392956,8.827598768,-99999.0,'11133222,11111222,99999999' 
TABS,ioos:station:wmo:42045:1,2003-02-01T15:30:00Z,26.2168,-96.4998,2.0,234.8737205,8.411896338,-99999.0,'11133222,11111222,99999999' 
TABS,ioos:station:wmo:42045:1,2003-02-01T16:00:00Z,26.2168,-96.4998,2.0,254.9777727,7.755011283,-99999.0,'11133222,11111222,99999999' 
TABS,ioos:station:wmo:42045:1,2003-02-01T16:30:00Z,26.2168,-96.4998,2.0,240.1650327,7.919627516,-99999.0,'11133222,11111222,99999999' 
TABS,ioos:station:wmo:42045:1,2003-02-01T17:00:00Z,26.2168,-96.4998,2.0,249.8261268,7.713183519,-99999.0,'11133222,11111222,99999999' 
TABS,ioos:station:wmo:42045:1,2003-02-01T17:30:00Z,26.2168,-96.4998,2.0,250.0488471,9.085240778,-99999.0,'11133222,11111222,99999999' 
TABS,ioos:station:wmo:42045:1,2003-02-01T18:00:00Z,26.2168,-96.4998,2.0,252.1230091,8.437357406,-99999.0,'11133222,11111222,99999999' 
TABS,ioos:station:wmo:42045:1,2003-02-01T18:30:00Z,26.2168,-96.4998,2.0,254.672697,8.398714187,-99999.0,'11133222,11111222,99999999' 
TABS,ioos:station:wmo:42045:1,2003-02-01T19:00:00Z,26.2168,-96.4998,2.0,255.7022573,7.450771772,-99999.0,'11133222,11111222,99999999' 
TABS,ioos:station:wmo:42045:1,2003-02-01T19:30:00Z,26.2168,-96.4998,2.0,253.4101547,5.498890797,-99999.0,'11133222,11111222,99999999' 
TABS,ioos:station:wmo:42045:1,2003-02-01T20:00:00Z,26.2168,-96.4998,2.0,268.9988835,4.580698637,-99999.0,'11133222,11111222,99999999' 
TABS,ioos:station:wmo:42045:1,2003-02-01T20:30:00Z,26.2168,-96.4998,2.0,267.278665,5.055699754,-99999.0,'11133222,11111222,99999999' 
TABS,ioos:station:wmo:42045:1,2003-02-01T21:00:00Z,26.2168,-96.4998,2.0,267.5868638,3.563158711,-99999.0,'11133222,11111222,99999999' 
TABS,ioos:station:wmo:42045:1,2003-02-01T21:30:00Z,26.2168,-96.4998,2.0,283.4812792,1.501366045,-99999.0,'11133222,11111222,99999999' 
TABS,ioos:station:wmo:42045:1,2003-02-01T22:00:00Z,26.2168,-96.4998,2.0,328.4384724,0.821522976,-99999.0,'11133222,11111222,99999999' 
TABS,ioos:station:wmo:42045:1,2003-02-01T22:30:00Z,26.2168,-96.4998,2.0,234.3232543,0.960208311,-99999.0,'11133222,11111222,99999999' 
TABS,ioos:station:wmo:42045:1,2003-02-01T23:00:00Z,26.2168,-96.4998,2.0,281.9336971,1.982851482,-99999.0,'11133222,11111222,99999999' 
TABS,ioos:station:wmo:42045:1,2003-02-01T23:30:00Z,26.2168,-96.4998,2.0,267.5279201,2.782588723,-99999.0,'11133222,11111222,99999999' 
TABS,ioos:station:wmo:42045:1,2003-02-02T00:00:00Z,26.2168,-96.4998,2.0,265.164329,3.321821789,-99999.0,'11133222,11111222,99999999' 
TABS,ioos:station:wmo:42045:1,2003-02-02T00:30:00Z,26.2168,-96.4998,2.0,302.8239046,3.11777164,-99999.0,'11133222,11111222,99999999' 
TABS,ioos:station:wmo:42045:1,2003-02-02T01:00:00Z,26.2168,-96.4998,2.0,298.6108137,1.378296049,-99999.0,'11133222,11111222,99999999' 
TABS,ioos:station:wmo:42045:1,2003-02-02T01:30:00Z,26.2168,-96.4998,2.0,297.4931936,3.314287254,-99999.0,'11133222,11111222,99999999' 
TABS,ioos:station:wmo:42045:1,2003-02-02T02:00:00Z,26.2168,-96.4998,2.0,284.6477619,0.909560333,-99999.0,'11133222,11111222,99999999' 
TABS,ioos:station:wmo:42045:1,2003-02-02T02:30:00Z,26.2168,-96.4998,2.0,269.3964893,0.95005263,-99999.0,'11133222,11111222,99999999' 
TABS,ioos:station:wmo:42045:1,2003-02-02T03:00:00Z,26.2168,-96.4998,2.0,311.9138336,2.889186737,-99999.0,'11133222,11111222,99999999' 
TABS,ioos:station:wmo:42045:1,2003-02-02T03:30:00Z,26.2168,-96.4998,2.0,299.0160246,4.288228072,-99999.0,'11133222,11111222,99999999' 
TABS,ioos:station:wmo:42045:1,2003-02-02T04:00:00Z,26.2168,-96.4998,2.0,338.5872911,2.191255348,-99999.0,'11133222,11111222,99999999' 
TABS,ioos:station:wmo:42045:1,2003-02-02T04:30:00Z,26.2168,-96.4998,2.0,348.2451752,1.767059705,-99999.0,'11133222,11111222,99999999' 
TABS,ioos:station:wmo:42045:1,2003-02-02T05:00:00Z,26.2168,-96.4998,2.0,305.7814111,2.736494107,-99999.0,'11133222,11111222,99999999' 
TABS,ioos:station:wmo:42045:1,2003-02-02T05:30:00Z,26.2168,-96.4998,2.0,339.0851227,1.680743883,-99999.0,'11133222,11111222,99999999' 
TABS,ioos:station:wmo:42045:1,2003-02-02T06:00:00Z,26.2168,-96.4998,2.0,327.0594682,3.181477644,-99999.0,'11133222,11111222,99999999' 
TABS,ioos:station:wmo:42045:1,2003-02-02T06:30:00Z,26.2168,-96.4998,2.0,297.2239516,1.945507646,-99999.0,'11133222,11111222,99999999' 
TABS,ioos:station:wmo:42045:1,2003-02-02T07:00:00Z,26.2168,-96.4998,2.0,359.39393,1.890105817,-99999.0,'11133222,11144222,99999999' 
TABS,ioos:station:wmo:42045:1,2003-02-02T07:30:00Z,26.2168,-96.4998,2.0,327.7869872,2.044749373,-99999.0,'11133222,11111222,99999999' 
TABS,ioos:station:wmo:42045:1,2003-02-02T08:00:00Z,26.2168,-96.4998,2.0,336.2976199,2.238861318,-99999.0,'11133222,11111222,99999999' 
TABS,ioos:station:wmo:42045:1,2003-02-02T08:30:00Z,26.2168,-96.4998,2.0,33.6186691,2.221576017,-99999.0,'11133222,11111222,99999999' 
TABS,ioos:station:wmo:42045:1,2003-02-02T09:00:00Z,26.2168,-96.4998,2.0,29.55243252,3.6900542,-99999.0,'11133222,11111222,99999999' 
TABS,ioos:station:wmo:42045:1,2003-02-02T09:30:00Z,26.2168,-96.4998,2.0,53.0327885,4.7060068,-99999.0,'11133222,11111222,99999999' 
TABS,ioos:station:wmo:42045:1,2003-02-02T10:00:00Z,26.2168,-96.4998,2.0,67.76873681,5.444740582,-99999.0,'11133222,11111222,99999999' 
TABS,ioos:station:wmo:42045:1,2003-02-02T10:30:00Z,26.2168,-96.4998,2.0,43.14706893,4.810841922,-99999.0,'11133222,11111222,99999999' 
TABS,ioos:station:wmo:42045:1,2003-02-02T11:00:00Z,26.2168,-96.4998,2.0,102.3774032,4.105423242,-99999.0,'11133222,11111222,99999999' 
TABS,ioos:station:wmo:42045:1,2003-02-02T11:30:00Z,26.2168,-96.4998,2.0,65.98719727,4.619826837,-99999.0,'11133222,11111222,99999999' 
TABS,ioos:station:wmo:42045:1,2003-02-02T12:00:00Z,26.2168,-96.4998,2.0,67.56706154,4.716948166,-99999.0,'11133222,11111222,99999999' 
TABS,ioos:station:wmo:42045:1,2003-02-02T12:30:00Z,26.2168,-96.4998,2.0,96.51978651,4.931896187,-99999.0,'11133222,11111222,99999999' 
TABS,ioos:station:wmo:42045:1,2003-02-02T13:00:00Z,26.2168,-96.4998,2.0,100.6411156,6.552686472,-99999.0,'11133222,11111222,99999999' 
TABS,ioos:station:wmo:42045:1,2003-02-02T13:30:00Z,26.2168,-96.4998,2.0,83.11055274,6.335747785,-99999.0,'11133222,11111222,99999999' 
TABS,ioos:station:wmo:42045:1,2003-02-02T14:00:00Z,26.2168,-96.4998,2.0,93.12779881,7.330920815,-99999.0,'11133222,11111222,99999999' 
TABS,ioos:station:wmo:42045:1,2003-02-02T14:30:00Z,26.2168,-96.4998,2.0,73.36908518,4.821700945,-99999.0,'11133222,11111222,99999999' 
TABS,ioos:station:wmo:42045:1,2003-02-02T15:00:00Z,26.2168,-96.4998,2.0,90.5686726,4.030198506,-99999.0,'11133222,11111222,99999999' 
TABS,ioos:station:wmo:42045:1,2003-02-02T15:30:00Z,26.2168,-96.4998,2.0,91.31313727,3.490916785,-99999.0,'11133222,11111222,99999999' 
TABS,ioos:station:wmo:42045:1,2003-02-02T16:00:00Z,26.2168,-96.4998,2.0,43.45195115,2.878975512,-99999.0,'11133222,11111222,99999999' 
TABS,ioos:station:wmo:42045:1,2003-02-02T16:30:00Z,26.2168,-96.4998,2.0,61.5325334,5.118945204,-99999.0,'11133222,11111222,99999999' 
TABS,ioos:station:wmo:42045:1,2003-02-02T17:00:00Z,26.2168,-96.4998,2.0,45.00010523,5.048742418,-99999.0,'11133222,11111222,99999999' 
TABS,ioos:station:wmo:42045:1,2003-02-02T17:30:00Z,26.2168,-96.4998,2.0,31.19737188,4.208610222,-99999.0,'11133222,11111222,99999999' 
TABS,ioos:station:wmo:42045:1,2003-02-02T18:00:00Z,26.2168,-96.4998,2.0,24.15923462,2.663268668,-99999.0,'11133222,11111222,99999999' 
TABS,ioos:station:wmo:42045:1,2003-02-02T18:30:00Z,26.2168,-96.4998,2.0,9.078430065,5.64065599,-99999.0,'11133222,11111222,99999999' 
TABS,ioos:station:wmo:42045:1,2003-02-02T19:00:00Z,26.2168,-96.4998,2.0,28.64595999,5.17320017,-99999.0,'11133222,11111222,99999999' 
TABS,ioos:station:wmo:42045:1,2003-02-02T19:30:00Z,26.2168,-96.4998,2.0,42.72298029,4.805049427,-99999.0,'11133222,11111222,99999999' 
TABS,ioos:station:wmo:42045:1,2003-02-02T20:00:00Z,26.2168,-96.4998,2.0,36.07404897,6.334611275,-99999.0,'11133222,11111222,99999999' 
TABS,ioos:station:wmo:42045:1,2003-02-02T20:30:00Z,26.2168,-96.4998,2.0,33.5897247,6.326365465,-99999.0,'11133222,11111222,99999999' 
TABS,ioos:station:wmo:42045:1,2003-02-02T21:00:00Z,26.2168,-96.4998,2.0,36.05657103,10.14302223,-99999.0,'11111222,11111222,99999999' 
TABS,ioos:station:wmo:42045:1,2003-02-02T21:30:00Z,26.2168,-96.4998,2.0,33.09883452,11.55502055,-99999.0,'11111222,11111222,99999999' 
TABS,ioos:station:wmo:42045:1,2003-02-02T22:00:00Z,26.2168,-96.4998,2.0,47.15306298,10.35227994,-99999.0,'11111222,11111222,99999999' 
TABS,ioos:station:wmo:42045:1,2003-02-02T22:30:00Z,26.2168,-96.4998,2.0,42.80442747,11.25833469,-99999.0,'11111222,11111222,99999999' 
TABS,ioos:station:wmo:42045:1,2003-02-02T23:00:00Z,26.2168,-96.4998,2.0,49.22132634,10.85525219,-99999.0,'11111222,11111222,99999999' 
TABS,ioos:station:wmo:42045:1,2003-02-02T23:30:00Z,26.2168,-96.4998,2.0,45.10504219,7.721619001,-99999.0,'11133222,11111222,99999999' 
TABS,ioos:station:wmo:42045:1,2003-02-03T00:00:00Z,26.2168,-96.4998,2.0,54.15570496,11.50984361,-99999.0,'11111222,11111222,99999999' 
TABS,ioos:station:wmo:42045:1,2003-02-03T00:30:00Z,26.2168,-96.4998,2.0,58.68297401,9.177063801,-99999.0,'11133222,11111222,99999999' 
TABS,ioos:station:wmo:42045:1,2003-02-03T01:00:00Z,26.2168,-96.4998,2.0,50.65735623,9.827151164,-99999.0,'11133222,11111222,99999999' 
TABS,ioos:station:wmo:42045:1,2003-02-03T01:30:00Z,26.2168,-96.4998,2.0,59.33183443,8.312646991,-99999.0,'11133222,11111222,99999999' 
TABS,ioos:station:wmo:42045:1,2003-02-03T02:00:00Z,26.2168,-96.4998,2.0,42.4333981,8.210675977,-99999.0,'11133222,11111222,99999999' 
TABS,ioos:station:wmo:42045:1,2003-02-03T02:30:00Z,26.2168,-96.4998,2.0,57.41317752,8.355333626,-99999.0,'11133222,11111222,99999999' 
TABS,ioos:station:wmo:42045:1,2003-02-03T03:00:00Z,26.2168,-96.4998,2.0,44.54487131,6.229807381,-99999.0,'11133222,11111222,99999999' 
TABS,ioos:station:wmo:42045:1,2003-02-03T03:30:00Z,26.2168,-96.4998,2.0,44.53597424,7.856214101,-99999.0,'11133222,11111222,99999999' 
TABS,ioos:station:wmo:42045:1,2003-02-03T04:00:00Z,26.2168,-96.4998,2.0,64.54561132,5.537544582,-99999.0,'11133222,11111222,99999999' 
TABS,ioos:station:wmo:42045:1,2003-02-03T04:30:00Z,26.2168,-96.4998,2.0,49.3294831,6.275802737,-99999.0,'11133222,11111222,99999999' 
TABS,ioos:station:wmo:42045:1,2003-02-03T05:00:00Z,26.2168,-96.4998,2.0,20.67311745,6.883204196,-99999.0,'11133222,11111222,99999999' 
TABS,ioos:station:wmo:42045:1,2003-02-03T05:30:00Z,26.2168,-96.4998,2.0,20.81148355,2.364254639,-99999.0,'11133222,11111222,99999999' 
TABS,ioos:station:wmo:42045:1,2003-02-03T06:00:00Z,26.2168,-96.4998,2.0,20.05920318,5.801947949,-99999.0,'11133222,11111222,99999999' 
TABS,ioos:station:wmo:42045:1,2003-02-03T06:30:00Z,26.2168,-96.4998,2.0,23.75562144,7.025225975,-99999.0,'11133222,11111222,99999999' 
TABS,ioos:station:wmo:42045:1,2003-02-03T07:00:00Z,26.2168,-96.4998,2.0,36.57111816,7.284099121,-99999.0,'11133222,11111222,99999999' 
TABS,ioos:station:wmo:42045:1,2003-02-03T07:30:00Z,26.2168,-96.4998,2.0,37.85864285,9.157363158,-99999.0,'11133222,11111222,99999999' 
TABS,ioos:station:wmo:42045:1,2003-02-03T08:00:00Z,26.2168,-96.4998,2.0,31.74170159,10.3594691,-99999.0,'11111222,11111222,99999999' 
TABS,ioos:station:wmo:42045:1,2003-02-03T08:30:00Z,26.2168,-96.4998,2.0,46.75708943,10.37813567,-99999.0,'11111222,11111222,99999999' 
TABS,ioos:station:wmo:42045:1,2003-02-03T09:00:00Z,26.2168,-96.4998,2.0,29.99706613,8.740812319,-99999.0,'11133222,11111222,99999999' 
TABS,ioos:station:wmo:42045:1,2003-02-03T09:30:00Z,26.2168,-96.4998,2.0,40.32225265,8.23694725,-99999.0,'11133222,11111222,99999999' 
TABS,ioos:station:wmo:42045:1,2003-02-03T10:00:00Z,26.2168,-96.4998,2.0,36.92950346,7.706004153,-99999.0,'11133222,11111222,99999999' 
TABS,ioos:station:wmo:42045:1,2003-02-03T10:30:00Z,26.2168,-96.4998,2.0,35.40539551,10.56345114,-99999.0,'11111222,11111222,99999999' 
TABS,ioos:station:wmo:42045:1,2003-02-03T11:00:00Z,26.2168,-96.4998,2.0,38.36568268,9.73131543,-99999.0,'11133222,11111222,99999999' 
TABS,ioos:station:wmo:42045:1,2003-02-03T11:30:00Z,26.2168,-96.4998,2.0,19.18264043,6.786825473,-99999.0,'11133222,11111222,99999999' 
TABS,ioos:station:wmo:42045:1,2003-02-03T12:00:00Z,26.2168,-96.4998,2.0,31.55357781,8.331842533,-99999.0,'11133222,11111222,99999999' 
TABS,ioos:station:wmo:42045:1,2003-02-03T12:30:00Z,26.2168,-96.4998,2.0,27.92277704,10.57062439,-99999.0,'11111222,11111222,99999999' 
TABS,ioos:station:wmo:42045:1,2003-02-03T13:00:00Z,26.2168,-96.4998,2.0,27.79717404,12.48014423,-99999.0,'11111222,11111222,99999999' 
TABS,ioos:station:wmo:42045:1,2003-02-03T13:30:00Z,26.2168,-96.4998,2.0,32.76358773,10.97617875,-99999.0,'11111222,11111222,99999999' 
TABS,ioos:station:wmo:42045:1,2003-02-03T14:00:00Z,26.2168,-96.4998,2.0,12.44384274,8.028605109,-99999.0,'11133222,11111222,99999999' 
TABS,ioos:station:wmo:42045:1,2003-02-03T14:30:00Z,26.2168,-96.4998,2.0,11.64819246,12.63009897,-99999.0,'11111222,11111222,99999999' 
TABS,ioos:station:wmo:42045:1,2003-02-03T15:00:00Z,26.2168,-96.4998,2.0,17.57034191,16.76198079,-99999.0,'11111222,11111222,99999999' 
TABS,ioos:station:wmo:42045:1,2003-02-03T15:30:00Z,26.2168,-96.4998,2.0,11.05800101,13.81651548,-99999.0,'11111222,11111222,99999999' 
TABS,ioos:station:wmo:42045:1,2003-02-03T16:00:00Z,26.2168,-96.4998,2.0,28.6789229,16.73270152,-99999.0,'11111222,11111222,99999999' 
TABS,ioos:station:wmo:42045:1,2003-02-03T16:30:00Z,26.2168,-96.4998,2.0,16.46099653,15.42209454,-99999.0,'11111222,11111222,99999999' 
TABS,ioos:station:wmo:42045:1,2003-02-03T17:00:00Z,26.2168,-96.4998,2.0,23.11162256,16.40675775,-99999.0,'11111222,11111222,99999999' 
TABS,ioos:station:wmo:42045:1,2003-02-03T17:30:00Z,26.2168,-96.4998,2.0,26.13921743,18.04556732,-99999.0,'11111222,11111222,99999999' 
TABS,ioos:station:wmo:42045:1,2003-02-03T18:00:00Z,26.2168,-96.4998,2.0,24.19915946,20.90717102,-99999.0,'11111222,11111222,99999999' 
TABS,ioos:station:wmo:42045:1,2003-02-03T18:30:00Z,26.2168,-96.4998,2.0,30.45577968,17.59816184,-99999.0,'11111222,11111222,99999999' 
TABS,ioos:station:wmo:42045:1,2003-02-03T19:00:00Z,26.2168,-96.4998,2.0,25.75124648,19.51837083,-99999.0,'11111222,11111222,99999999' 
TABS,ioos:station:wmo:42045:1,2003-02-03T19:30:00Z,26.2168,-96.4998,2.0,31.28195504,22.24370922,-99999.0,'11111222,11111222,99999999' 
TABS,ioos:station:wmo:42045:1,2003-02-03T20:00:00Z,26.2168,-96.4998,2.0,30.40864865,20.8826483,-99999.0,'11111222,11111222,99999999' 
TABS,ioos:station:wmo:42045:1,2003-02-03T20:30:00Z,26.2168,-96.4998,2.0,36.42121348,22.46868933,-99999.0,'11111222,11111222,99999999' 
TABS,ioos:station:wmo:42045:1,2003-02-03T21:00:00Z,26.2168,-96.4998,2.0,37.43970413,21.12104401,-99999.0,'11111222,11111222,99999999' 
TABS,ioos:station:wmo:42045:1,2003-02-03T21:30:00Z,26.2168,-96.4998,2.0,42.05543191,21.8855683,-99999.0,'11111222,11111222,99999999' 
TABS,ioos:station:wmo:42045:1,2003-02-03T22:00:00Z,26.2168,-96.4998,2.0,47.78173286,22.29305946,-99999.0,'11111222,11111222,99999999' 
TABS,ioos:station:wmo:42045:1,2003-02-03T22:30:00Z,26.2168,-96.4998,2.0,49.89918623,22.35553623,-99999.0,'11111222,11111222,99999999' 
TABS,ioos:station:wmo:42045:1,2003-02-03T23:00:00Z,26.2168,-96.4998,2.0,50.7357935,20.87222317,-99999.0,'11111222,11111222,99999999' 
TABS,ioos:station:wmo:42045:1,2003-02-03T23:30:00Z,26.2168,-96.4998,2.0,56.35321412,18.39109023,-99999.0,'11111222,11111222,99999999' 
TABS,ioos:station:wmo:42045:1,2003-02-04T00:00:00Z,26.2168,-96.4998,2.0,54.82478829,15.62283265,-99999.0,'11111222,11111222,99999999' 
TABS,ioos:station:wmo:42045:1,2003-02-04T00:30:00Z,26.2168,-96.4998,2.0,61.49435768,15.71515511,-99999.0,'11111222,11111222,99999999' 
TABS,ioos:station:wmo:42045:1,2003-02-04T01:00:00Z,26.2168,-96.4998,2.0,68.4841656,16.76849725,-99999.0,'11111222,11111222,99999999' 
TABS,ioos:station:wmo:42045:1,2003-02-04T01:30:00Z,26.2168,-96.4998,2.0,68.74760662,15.31128342,-99999.0,'11111222,11111222,99999999' 
TABS,ioos:station:wmo:42045:1,2003-02-04T02:00:00Z,26.2168,-96.4998,2.0,74.17482986,13.75119631,-99999.0,'11111222,11111222,99999999' 
TABS,ioos:station:wmo:42045:1,2003-02-04T02:30:00Z,26.2168,-96.4998,2.0,74.65415323,12.73402136,-99999.0,'11111222,11111222,99999999' 
TABS,ioos:station:wmo:42045:1,2003-02-04T03:00:00Z,26.2168,-96.4998,2.0,88.81770611,10.66226993,-99999.0,'11111222,11111222,99999999' 
TABS,ioos:station:wmo:42045:1,2003-02-04T03:30:00Z,26.2168,-96.4998,2.0,84.39932661,8.299620473,-99999.0,'11133222,11111222,99999999' 
TABS,ioos:station:wmo:42045:1,2003-02-04T04:00:00Z,26.2168,-96.4998,2.0,82.85619636,7.558677133,-99999.0,'11133222,11111222,99999999' 
TABS,ioos:station:wmo:42045:1,2003-02-04T04:30:00Z,26.2168,-96.4998,2.0,115.4673439,6.069802303,-99999.0,'11133222,11111222,99999999' 
TABS,ioos:station:wmo:42045:1,2003-02-04T05:00:00Z,26.2168,-96.4998,2.0,121.3840274,5.376625336,-99999.0,'11133222,11111222,99999999' 
TABS,ioos:station:wmo:42045:1,2003-02-04T05:30:00Z,26.2168,-96.4998,2.0,146.3098008,3.857939865,-99999.0,'11133222,11111222,99999999' 
TABS,ioos:station:wmo:42045:1,2003-02-04T06:00:00Z,26.2168,-96.4998,2.0,182.5810422,2.44247825,-99999.0,'11133222,11111222,99999999' 
TABS,ioos:station:wmo:42045:1,2003-02-04T06:30:00Z,26.2168,-96.4998,2.0,185.4673503,3.988144932,-99999.0,'11133222,11111222,99999999' 
TABS,ioos:station:wmo:42045:1,2003-02-04T07:00:00Z,26.2168,-96.4998,2.0,201.7155684,7.459390055,-99999.0,'11133222,11111222,99999999' 
TABS,ioos:station:wmo:42045:1,2003-02-04T07:30:00Z,26.2168,-96.4998,2.0,202.6975299,9.614624278,-99999.0,'11133222,11111222,99999999' 
TABS,ioos:station:wmo:42045:1,2003-02-04T08:00:00Z,26.2168,-96.4998,2.0,223.138531,13.49871846,-99999.0,'11111222,11111222,99999999' 
TABS,ioos:station:wmo:42045:1,2003-02-04T08:30:00Z,26.2168,-96.4998,2.0,217.4007794,12.51253771,-99999.0,'11111222,11111222,99999999' 
TABS,ioos:station:wmo:42045:1,2003-02-04T09:00:00Z,26.2168,-96.4998,2.0,224.2601086,16.43453072,-99999.0,'11111222,11111222,99999999' 
TABS,ioos:station:wmo:42045:1,2003-02-04T09:30:00Z,26.2168,-96.4998,2.0,192.7948055,13.7719788,-99999.0,'11111222,11111222,99999999' 
TABS,ioos:station:wmo:42045:1,2003-02-04T10:00:00Z,26.2168,-96.4998,2.0,229.9808891,13.76277952,-99999.0,'11111222,11111222,99999999' 
TABS,ioos:station:wmo:42045:1,2003-02-04T10:30:00Z,26.2168,-96.4998,2.0,208.1452418,17.99824991,-99999.0,'11111222,11111222,99999999' 
TABS,ioos:station:wmo:42045:1,2003-02-04T11:00:00Z,26.2168,-96.4998,2.0,207.8157371,13.92955132,-99999.0,'11111222,11111222,99999999' 
TABS,ioos:station:wmo:42045:1,2003-02-04T11:30:00Z,26.2168,-96.4998,2.0,224.825534,16.28474439,-99999.0,'11111222,11111222,99999999' 
TABS,ioos:station:wmo:42045:1,2003-02-04T12:00:00Z,26.2168,-96.4998,2.0,204.8085055,15.46744,-99999.0,'11111222,11111222,99999999' 
TABS,ioos:station:wmo:42045:1,2003-02-04T12:30:00Z,26.2168,-96.4998,2.0,210.4685884,17.47292763,-99999.0,'11111222,11111222,99999999' 
TABS,ioos:station:wmo:42045:1,2003-02-04T13:00:00Z,26.2168,-96.4998,2.0,192.6511005,18.76561217,-99999.0,'11111222,11111222,99999999' 
TABS,ioos:station:wmo:42045:1,2003-02-04T13:30:00Z,26.2168,-96.4998,2.0,209.3395211,19.12291296,-99999.0,'11111222,11111222,99999999' 
TABS,ioos:station:wmo:42045:1,2003-02-04T14:00:00Z,26.2168,-96.4998,2.0,213.1981101,21.33178145,-99999.0,'11111222,11111222,99999999' 
TABS,ioos:station:wmo:42045:1,2003-02-04T14:30:00Z,26.2168,-96.4998,2.0,212.4405074,15.90148735,-99999.0,'11111222,11111222,99999999' 
TABS,ioos:station:wmo:42045:1,2003-02-04T15:00:00Z,26.2168,-96.4998,2.0,215.1388453,21.0576067,-99999.0,'11111222,11111222,99999999' 
TABS,ioos:station:wmo:42045:1,2003-02-04T15:30:00Z,26.2168,-96.4998,2.0,221.0610936,19.04493896,-99999.0,'11111222,11111222,99999999' 
TABS,ioos:station:wmo:42045:1,2003-02-04T16:00:00Z,26.2168,-96.4998,2.0,215.600174,21.21520681,-99999.0,'11111222,11111222,99999999' 
TABS,ioos:station:wmo:42045:1,2003-02-04T16:30:00Z,26.2168,-96.4998,2.0,223.1106453,20.80731842,-99999.0,'11111222,11111222,99999999' 
TABS,ioos:station:wmo:42045:1,2003-02-04T17:00:00Z,26.2168,-96.4998,2.0,216.0419712,19.80006566,-99999.0,'11111222,11111222,99999999' 